SL-14 R/B

Satellite information

Favourite Embed

Satellite Type and Status

ROCKET BODYIN ORBIT

Key statistics

Satellite SL-14 R/B at a glance.

Uptime

14287

Days in orbit

Revolutions

≈ 14.9

Per day

Orbit

LEO

Low Earth Orbit

Inclination

82.5

Latest

Satellite identification and parameters

Extended collection of information and parameters for SL-14 R/B.

Object identification

Identified? True

Debris? False

Object name: SL-14 R/B

International designator: 1986-055B

Object number (NORAD): 16882

Object ID (CCSDS): 16882

Country: COMMONWEALTH OF INDEPENDENT STATES (CIS)

Current information (Y/N): Y

RCS size: LARGE

Orbital parameters

Period: 96.945 minutes

Inclination: 82.5197 deg

SMA: 6990.545 km

Apoapsis: 625.126 km

Periapsis: 599.693 km

RAAN: 298.4586 deg

Eccentricy: 0.00181909

Argument of periapsis: 212.9235 deg

Mean anomaly: 320.5242 deg

Mean motion: 14.85375469 rev/day

Mean motion (dot): 0.00000556 rev/day2

B* drag term: 0.000061616459 1/REarth

Two-line elements (TLE)

Creation date: Sept. 8, 2025, 3:16 a.m.

Reference frame: TEME

Reference center: EARTH

Epoch: Sept. 7, 2025, 9:05 p.m. UTC

TLE line 0: 0 SL-14 R/B

TLE line 1: 1 16882U 86055B 25250.87858794 .00000556 00000-0 61616-4 0 9999

TLE line 2: 2 16882 82.5197 298.4586 0018191 212.9235 320.5242 14.85375469 92220

Live tracking on map

Real-time ground track for satellite SL-14 R/B.

In-orbit conjunctions

A list of the most updated potential collisions computed for object SL-14 R/B.

Target Orbit TCA Probability of collision Miss distance Type
RESURS O1 SSO 2025-02-13 19:33:01 0.0005121777 722.0 (m) PAYLOAD

Associated space launch

Ocean observation satellite

SL-14 R/B was lifted into orbit during the mission ‘Tsiklon-3 | Okean-O1 1’, on board a Tsiklon-3 space rocket.

The launch took place on July 28, 1986, 9:07 p.m. from 32/2.

For more information about the launch, click the button.

Launch to space Tsiklon-3 | Okean-O1 1
Tsiklon-3 | Okean-O1 1

Agency: N/A

Status: Launch Successful

Launch date: July 28, 1986, 9:07 p.m. UTC

Rocket: Tsiklon-3

Launch pad: 32/2

Location: Plesetsk Cosmodrome, Russian Federation

...

Latest news about this satellite

There are no fresh news available about this satellite. Check back as we update our databases every day.


Newsletter sign-up

Weekly statistics, charts and insights to help you stay on top of the space industry.